User: anonymous   Login
Location: *
(50.2903°S, 172.5375°W)
Time: 23:22:19
(UTC+00:00)
Language:

FALCON 9 DEB - Orbit

View from above orbital plane
View from above orbital plane
View from above satellite
View from above satellite

Ground track
Ground track

The orbit data is extracted from the following two-line orbital elements,

1 44775U 19074BQ  20010.62331876  .04169953  12285-4  40682-3 0  9999
2 44775  52.9904 217.8963 0006765 262.7992  97.2284 16.37470542  9656
Epoch (UTC): 10 January 2020 14:57:34
Eccentricity: 0.0006765
inclination: 52.9904°
perigee height: 168 km
apogee height: 177 km
right ascension of ascending node: 217.8963°
argument of perigee: 262.7992°
revolutions per day: 16.37470542
mean anomaly at epoch: 97.2284°
orbit number at epoch: 965

The dashed part of the orbit path shows where the satellite is in the earth's shadow,  

DLR